Weather History for KCDW - February, 2013

Change the Weather History Date:

Saturday, February 16, 2013

  Actual Average Record
Temperature  
Mean Temperature 34 °F -  
Max Temperature 37 °F 40 °F 69 °F (1954)
Min Temperature 28 °F 20 °F 1 °F (1987)
Degree Days  
Heating Degree Days 32    
Moisture  
Dew Point 25 °F    
Average Humidity 71    
Maximum Humidity 93    
Minimum Humidity 45    
Precipitation  
Precipitation 0.06 in - - ()
Sea Level Pressure  
Sea Level Pressure 29.93 in    
Wind  
Wind Speed 3 mph (North)    
Max Wind Speed 10 mph    
Max Gust Speed 26 mph    
Visibility 10 miles    
Events Rain    
Averages and records for this station are not official NWS values.
T = Trace of Precipitation, MM = Missing Value Source: NWS Daily Summary

Daily Weather History Graph

Daily Weather History Graph

Search for Another Location

Airport or City:

Trip Planner

Search our weather history database for the weather conditions in past years. The results will help you decide how hot, cold, wet, or windy it might be!

Date:

Astronomy

Feb. 16, 2013 Rise Set
Actual Time 6:49 AM EST 5:33 PM EST
Civil Twilight 6:21 AM EST 6:01 PM EST
Nautical Twilight 5:49 AM EST 6:33 PM EST
Astronomical Twilight 5:17 AM EST 7:05 PM EST
Moon 9:57 AM EST (2/16) No Moon Set
Length of Visible Light 11h 39m
Length of Day
10h 43m
Waxing Crescent, 39% of the Moon is Illuminated
Feb 16
Waxing Crescent
Feb 17
First Quarter
Feb 25
Full
Mar 4
Last Quarter
Mar 11
New

Hourly Weather History & Observations

Time (EST) Temp. Windchill Dew Point Humidity Pressure Visibility Wind Dir Wind Speed Gust Speed Precip Events Conditions
12:25 AM 37.4 °F 34.9 °F 30.2 °F 75% 29.98 in 7.0 mi NW 3.5 mph - 0.01 in Rain Light Rain
12:53 AM 36.0 °F - 30.9 °F 82% 30.00 in 6.0 mi Calm Calm - 0.03 in Rain Light Rain
1:53 AM 35.1 °F - 30.9 °F 85% 29.98 in 6.0 mi Calm Calm - 0.03 in Rain Light Rain
2:24 AM 35.6 °F - 33.8 °F 93% 29.96 in 9.0 mi Calm Calm - 0.00 in Rain Light Rain
2:53 AM 35.1 °F - 33.1 °F 92% 29.97 in 8.0 mi Calm Calm - 0.00 in   Overcast
3:51 AM 35.6 °F - 33.8 °F 93% 29.93 in 10.0 mi Calm Calm - N/A   Overcast
3:53 AM 35.1 °F - 33.1 °F 92% 29.95 in 10.0 mi Calm Calm - N/A   Overcast
4:53 AM 34.0 °F - 32.0 °F 92% 29.97 in 10.0 mi Calm Calm - N/A   Overcast
5:07 AM 33.8 °F 29.6 °F 30.2 °F 87% 29.95 in 10.0 mi NNE 4.6 mph - N/A   Overcast
5:45 AM 33.8 °F 30.8 °F 30.2 °F 87% 29.95 in 9.0 mi NE 3.5 mph - 0.00 in   Overcast
5:53 AM 33.1 °F - 30.9 °F 92% 29.98 in 10.0 mi Calm Calm - 0.00 in   Overcast
6:53 AM 33.1 °F - 30.9 °F 92% 29.97 in 10.0 mi Calm Calm - N/A   Overcast
7:53 AM 33.1 °F - 28.9 °F 85% 29.99 in 10.0 mi Calm Calm - N/A   Overcast
8:32 AM 33.8 °F 30.8 °F 28.4 °F 81% 29.97 in 10.0 mi NNE 3.5 mph - N/A   Overcast
8:53 AM 34.0 °F - 28.0 °F 79% 29.98 in 10.0 mi Calm Calm - N/A   Overcast
9:53 AM 34.0 °F 28.0 °F 27.0 °F 75% 29.98 in 10.0 mi Variable 6.9 mph - N/A   Overcast
10:53 AM 34.0 °F 27.2 °F 24.1 °F 67% 29.96 in 10.0 mi NNE 8.1 mph 26.5 mph N/A   Mostly Cloudy
11:53 AM 36.0 °F 29.6 °F 24.1 °F 62% 29.94 in 10.0 mi NE 8.1 mph - N/A   Mostly Cloudy
12:53 PM 37.9 °F 32.7 °F 23.0 °F 55% 29.92 in 10.0 mi Variable 6.9 mph - N/A   Mostly Cloudy
1:53 PM 37.0 °F 33.3 °F 21.9 °F 54% 29.91 in 10.0 mi NNW 4.6 mph - N/A   Overcast
2:53 PM 37.0 °F 31.0 °F 21.9 °F 54% 29.88 in 10.0 mi NE 8.1 mph - N/A   Scattered Clouds
3:53 PM 36.0 °F 31.1 °F 18.0 °F 48% 29.89 in 10.0 mi North 5.8 mph - N/A   Overcast
4:53 PM 35.1 °F 31.0 °F 17.1 °F 48% 29.88 in 10.0 mi North 4.6 mph - N/A   Overcast
5:53 PM 34.0 °F 29.8 °F 17.1 °F 50% 29.87 in 10.0 mi North 4.6 mph - N/A   Overcast
6:53 PM 34.0 °F 29.8 °F 18.0 °F 52% 29.87 in 10.0 mi North 4.6 mph - N/A   Overcast
7:53 PM 32.0 °F 26.4 °F 19.0 °F 59% 29.86 in 10.0 mi Variable 5.8 mph - N/A   Overcast
8:53 PM 32.0 °F 26.4 °F 18.0 °F 56% 29.85 in 10.0 mi Variable 5.8 mph - N/A   Overcast
9:53 PM 30.9 °F 25.2 °F 14.0 °F 50% 29.86 in 10.0 mi Variable 5.8 mph - N/A   Overcast
10:53 PM 30.0 °F 21.1 °F 12.0 °F 47% 29.80 in 10.0 mi North 10.4 mph - N/A   Overcast
11:53 PM 28.9 °F 20.4 °F 10.0 °F 45% 29.78 in 10.0 mi NNW 9.2 mph - N/A   Overcast